sat.trackr.live / text

‹ back to catalog

WEINA 2

NORAD 47303 · 2020-103B

PAYLOAD ACTIVE UNKNOWN

§ Identity

Operator
Country
PRC
Launch date
2020-12-27
Launch site
JSC
Launch vehicle
Mass (kg)
RCS (m²)

External: N2YO · Heavens-Above · Gunter

§ Orbital elements

Epoch: 2026-09-20T05:29:46.704192Z

Period
98.28 min
Inclination
98.0375°
Eccentricity
0.0000778
Mean motion
14.65167779 rev/d
Perigee alt
676.0 km
Apogee alt
677.1 km
Semi-major
7,054.7 km
B*
9.1126e-5
RAAN
150.3781°
Arg perigee
268.2387°
Mean anomaly
91.8727°
Rev number
30,564

§ Raw data

WEINA 21 47303U 20103B   26263.22901278  .00000443  00000+0  91126-4 0  99962 47303  98.0375 150.3781 0000778 268.2387  91.8727 14.65167779305649

JSON: /api/v1/satellites/47303 · /tle

For live sub-satellite position, see the globe view (requires WebGL).

§ Visibility from observer

Set your observer location to see the next 7 days of passes ≥ 10°. The values pass through the URL so the page stays shareable.

No JS? Fill the form by hand. The geolocation button needs JavaScript.